STARLINK-1869 (47155 NORAD) Tracking and Keplerian Element Data

This shows tracking and keplerian element data for the satellite.

Feedback or suggestion? Click here.




ElementValue
Catalog47155
NameSTARLINK-1869
Epoch Orbit175
Epoch Day15.91667824
Epoch Year2021
RAAN105.7615
Inclination53.0574
Eccentricity0.000156
Argument of Perigee70.0653
Mean Anonmoly189.7711
Mean Motion15.0640189
Decay Rate-0.00037545
L11 47155U 20088AK 21015.91667824 -.00037545 00000-0 -25148-2 0 9990
L22 47155 53.0574 105.7615 0001560 70.0653 189.7711 15.06401890 1757

Live tracking and technical data element details for STARLINK-1869 (NORAD 47155). STARLINK-1869 can be tracked NOW for your location showing map with azimuth and elevation plus other details from your city location.

Track the satellite on the map from your city or location and see movement details for azimuth, elevation, latitude, longitude, range, height, and movement on the map or in text.







IsCatalogInMostPopularTable: catalog: 47155, numindb: 20
Update: records affected: 1



GetName: 47155 STARLINK-1869

Hit Count: updated at: Sun, 17 Jan 2021 09:05:35 GMT